Weather Roundup
Issued by NWS Springfield, MO

Home | Current Version | Previous Version | Text Only | Print | Product List | Glossary On
Versions: 1 2 3 4 5 6 7 8 9 10 11 12 13 14 15 16 17 18 19 20 21 22 23 24 25 26 27 28 29 30 31 32 33 34 35 36 37 38 39 40 41 42 43 44 45 46 47 48 49 50
000
NZUS99 KSGF 040710
HRRSGF

HOURLY WEATHER
NATIONAL WEATHER SERVICE SPRINGFIELD MO
200 AM CDT TUE AUG 04 2015

......SGF CWA......

CITY           SKY/WX    TMP DP  RH WIND       PRES   REMARKS
SPRINGFIELD    CLEAR     73  67  81 S3        29.96F
JOPLIN         CLEAR     70  66  87 CALM      29.95F
WEST PLAINS    PTCLDY    72  68  87 CALM      29.99S
ROLLA          PTCLDY    72  70  93 S3        29.95S
OSAGE BEACH    PTCLDY    73  70  88 CALM      29.95S
BRANSON        CLEAR     72  68  88 CALM      29.99S

......SURROUNDING SGF CWA......

CITY           SKY/WX    TMP DP  RH WIND       PRES   REMARKS
CHANUTE        CLEAR     70  67  90 S6        29.94F
PARSONS        CLEAR     67  66  97 CALM      29.95S
COFFEYVILLE    CLEAR     70  67  90 SE3       29.93S
EMPORIA        PTCLDY    72  67  84 S8        29.93S
GROVE OK       CLEAR     70  70 100 CALM      29.95S
ROGERS AR      CLEAR     72  71  97 CALM      29.99S
SILOAM SPRINGS CLEAR     72  64  78 E3        29.97S
HARRISON AR    CLEAR     70  68  93 CALM      29.99S
NEAR YELLVILLE CLEAR     73  68  83 SW3       29.94S

......KANSAS AND MISSOURI......

CITY           SKY/WX    TMP DP  RH WIND       PRES   REMARKS
KANSAS CTY INT PTCLDY    74  67  78 E7        29.94F
DOWNTOWN KC    CLEAR     76  68  76 E6        29.93F
COLUMBIA       PTCLDY    73  68  84 E6        29.95S
SEDALIA        CLEAR     75  70  84 E3        29.95F
ST JOSEPH      PTCLDY    73  67  81 E5        29.93F
ST LOUIS       MOCLDY    79  65  62 NE5       29.95S
SPIRIT OF STL  PTCLDY    74  73  97 CALM      29.93S
KIRKSVILLE     MOCLDY    68  62  81 CALM      29.99R
WICHITA        CLOUDY    76  67  73 S5        29.94R
TOPEKA         CLEAR     75  71  87 E3        29.93S
OLATHE         PTCLDY    75  70  84 CALM      29.94F

......TENNESSEE......

CITY           SKY/WX    TMP DP  RH WIND       PRES   REMARKS
MEMPHIS        MOCLDY    80  70  71 CALM      29.93F
NASHVILLE      CLEAR     76  70  82 CALM      29.96S

......ARKANSAS.......

CITY           SKY/WX    TMP DP  RH WIND       PRES   REMARKS
FAYETTEVILLE   CLEAR     69  69 100 CALM      29.98F
FT SMITH       CLEAR     77  71  82 E5        29.93S
LITTLE ROCK    PTCLDY    78  70  76 CALM      29.93S

......OKLAHOMA.......

CITY           SKY/WX    TMP DP  RH WIND       PRES   REMARKS
TULSA          CLOUDY    80  70  71 SE8       29.90F
PONCA CITY     CLOUDY    77  68  73 SE6       29.92S
MCALESTER      MOCLDY    78  67  68 CALM      29.93S
OKLAHOMA CITY  CLOUDY    74  68  81 SE6       29.92F

......IOWA............

CITY           SKY/WX    TMP DP  RH WIND       PRES   REMARKS
DES MOINES     PTCLDY    69  59  70 CALM      29.97S
QUAD CITIES    CLEAR     61  56  83 S3        29.95S

......ILLINOIS........

CITY           SKY/WX    TMP DP  RH WIND       PRES   REMARKS
QUINCY         MOCLDY    67  61  81 NE6       29.96S
CHICAGO        CLEAR     65  56  72 W6        29.91S



USA.gov is the U.S. government's official web portal to all federal, state and local government web resources and services.